GFSNE_con_3kmhel_078.txt.gz
Helicity
150 112 88 106 107 100 96 110 110 117 102 145 140 122 155 179 178 168 178 158 171 182 127 89 84 84 101 146 129 107 107 131 156 118 46 20 20 46
111 104 96 111 113 121 136 144 150 154 163 221 184 153 143 189 181 177 153 171 172 125 103 72 88 108 109 131 131 101 98 117 166 177 130 18 11 11
104 92 98 105 115 128 142 142 146 167 183 203 210 192 168 194 183 187 180 154 136 136 95 67 97 96 93 113 118 109 113 103 129 168 189 194 73 48
116 122 115 139 122 136 140 130 145 169 193 181 195 194 190 192 185 169 166 135 133 104 107 76 119 98 93 103 95 103 110 108 126 146 203 258 274 186
128 117 118 119 120 135 137 146 157 181 187 199 196 205 209 211 224 198 194 168 193 163 112 127 125 126 78 83 78 80 101 108 115 130 156 210 305 275
154 144 137 138 134 131 131 129 155 169 179 194 207 202 196 182 197 190 182 162 146 118 107 117 95 94 62 54 61 76 90 103 112 127 122 145 188 236
155 136 131 133 146 137 135 158 183 188 198 202 213 208 191 193 183 176 176 151 111 83 77 75 53 45 49 52 52 71 79 95 112 122 122 123 139 152
127 120 123 136 136 142 137 147 153 176 171 178 181 176 171 167 162 160 165 137 87 61 54 44 51 46 45 55 83 76 65 81 105 110 110 102 105 121
138 126 129 149 158 159 167 167 180 179 162 137 145 142 147 119 137 135 115 88 60 61 44 47 45 55 61 60 69 69 69 86 100 93 89 90 90 93
105 105 115 134 154 176 167 164 152 150 141 125 102 102 105 102 92 69 54 71 77 64 63 57 54 59 60 62 56 68 76 84 86 84 86 95 106 107
99 98 118 137 129 138 151 143 128 115 115 107 94 87 81 67 67 67 68 63 58 56 66 68 60 63 57 60 84 99 76 70 73 79 95 96 95 91
99 99 100 127 120 115 117 115 101 97 101 91 87 87 71 70 59 46 49 62 79 69 53 66 63 69 71 49 61 69 80 107 102 87 85 91 86 86
103 113 121 99 105 93 93 99 94 90 80 67 58 57 51 54 58 68 67 68 79 79 50 64 76 79 93 85 91 69 64 74 70 72 70 73 85 91
102 108 111 84 88 89 108 112 106 83 72 65 62 55 53 54 61 66 66 73 72 65 41 62 80 66 98 118 100 70 72 70 70 66 69 69 66 69
118 114 110 93 80 94 97 109 101 86 70 84 67 50 54 60 80 80 81 84 85 82 78 93 103 108 104 92 70 73 78 70 73 74 73 70 71 83
125 142 112 115 106 108 131 123 103 80 71 77 76 78 82 82 76 64 88 118 117 110 94 100 104 87 81 63 67 75 76 86 73 75 80 83 76 73
161 202 161 150 140 136 148 135 99 88 94 90 95 90 83 85 96 110 131 131 131 122 107 105 123 91 80 80 69 63 70 73 78 82 88 79 77 76
236 228 189 133 135 143 158 146 112 99 95 94 88 93 103 116 137 138 144 143 116 108 114 144 144 109 92 70 59 73 75 80 89 90 92 92 88 86
191 180 172 162 160 165 164 156 141 120 124 120 122 120 130 134 139 150 153 124 95 81 108 108 88 77 72 84 102 49 94 99 104 111 107 104 100 109
158 193 196 194 178 167 175 162 143 131 122 118 119 123 128 136 153 163 142 97 72 91 84 80 83 85 84 98 126 139 73 121 124 125 125 110 90 52
194 212 197 194 201 175 186 186 174 147 126 133 127 131 139 165 140 133 104 71 103 105 91 83 73 78 127 139 121 126 142 85 95 123 131 117 105 96
193 214 218 216 188 163 195 207 199 147 113 130 124 135 149 148 116 102 106 111 110 117 107 108 142 134 137 125 103 115 139 117 99 65 75 86 123 115
187 203 220 202 199 209 208 199 186 150 113 133 141 134 131 129 119 122 138 140 133 137 130 134 138 136 113 110 102 114 114 103 93 97 99 60 31 31

GFSNE_con_3kmhel_081.txt.gz
Helicity
125 134 127 107 117 121 128 118 119 126 93 88 236 204 186 179 167 168 225 203 198 188 145 143 135 89 98 83 104 111 105 94 116 125 102 73 24 59
145 137 128 142 121 104 122 114 119 118 152 210 273 235 189 181 179 196 197 198 163 126 110 122 92 84 87 134 122 116 112 99 114 134 146 132 21 20
110 90 100 101 98 116 133 137 132 154 149 195 241 224 186 206 187 185 190 181 169 132 122 119 111 85 113 106 101 104 118 104 123 134 148 177 92 28
96 115 115 129 126 148 169 154 154 152 166 148 206 189 200 195 178 173 183 164 165 130 92 74 72 78 112 102 110 95 126 121 126 120 136 208 262 151
124 129 128 130 136 155 145 145 149 173 180 196 203 208 207 216 224 222 205 197 184 184 162 119 95 83 97 101 99 88 85 107 113 100 123 166 282 369
142 133 137 153 159 142 152 142 162 176 169 199 229 230 219 215 220 210 191 178 178 161 141 120 83 96 82 86 75 76 87 94 97 100 93 134 201 289
159 164 167 173 213 190 173 163 161 164 195 202 224 221 208 198 181 180 181 174 143 122 101 81 80 81 70 54 34 34 60 81 83 92 89 112 146 173
167 159 163 181 142 132 134 143 125 156 179 201 204 196 173 172 179 183 206 195 150 94 86 81 80 54 57 43 61 30 46 64 75 89 102 131 129 126
182 168 145 114 116 115 129 147 171 162 157 135 132 132 146 155 175 167 163 156 126 93 51 62 57 45 61 46 42 50 52 70 85 91 103 120 131 134
157 148 130 94 79 130 169 184 172 163 147 141 127 127 124 125 124 117 118 115 131 88 77 58 57 53 52 45 41 53 59 64 73 83 99 114 123 128
132 112 113 112 93 123 166 147 136 133 136 127 139 147 120 96 108 128 150 122 82 56 53 65 55 76 45 44 57 67 62 55 64 84 96 98 106 106
113 106 96 115 80 96 133 128 112 108 115 138 144 141 120 116 87 74 84 93 82 51 53 90 84 70 58 52 44 36 68 72 101 82 82 86 91 93
114 136 130 55 57 83 103 121 102 126 117 123 121 118 102 86 90 103 100 74 102 75 51 87 66 69 74 73 60 67 85 67 64 64 65 73 81 99
116 147 111 49 67 83 110 110 142 139 142 128 106 95 92 98 101 102 113 107 88 71 55 77 75 83 92 87 87 94 94 74 68 64 76 79 69 65
158 134 82 41 57 92 91 110 115 147 151 137 113 101 121 123 125 108 111 105 105 97 98 78 82 97 90 90 88 98 96 55 79 77 84 72 69 75
133 144 129 97 99 137 125 129 152 149 153 139 125 117 162 130 99 87 97 80 113 118 109 98 112 101 100 93 100 77 61 60 70 66 68 70 73 77
221 215 179 167 174 174 180 157 155 152 161 141 136 140 128 129 118 103 114 122 121 138 122 113 109 107 122 135 97 68 63 70 81 87 92 79 72 74
276 258 192 191 189 188 208 178 149 139 170 159 142 142 132 141 139 125 126 140 156 151 150 145 135 141 138 114 76 78 88 93 93 101 100 87 77 82
216 255 240 223 209 177 175 177 173 168 179 161 147 143 146 141 122 141 147 162 164 161 157 148 118 128 110 81 83 42 100 103 101 96 86 86 94 106
169 244 232 245 240 185 143 170 187 208 209 183 153 149 151 154 154 150 161 164 164 174 156 126 105 102 93 73 90 86 51 108 111 102 101 93 83 49
149 181 209 203 215 200 170 179 213 215 215 201 160 148 153 151 148 146 150 141 153 149 110 93 106 85 146 133 123 100 108 66 104 135 134 116 95 87
158 166 195 199 208 218 222 208 209 216 228 211 174 161 149 148 145 152 166 169 127 106 98 135 157 174 167 141 129 117 126 136 97 63 66 87 117 103
122 156 174 216 239 236 245 245 211 225 222 205 206 182 147 145 139 153 165 145 119 128 154 172 177 157 135 128 114 116 109 117 126 112 116 61 44 33

GFSNE_con_3kmhel_087.txt.gz
Helicity
125 126 146 140 151 123 113 160 143 121 89 164 184 225 240 231 190 145 139 127 143 185 188 183 158 142 136 141 141 115 96 51 48 71 68 96 107 105
151 157 202 163 149 118 129 135 136 149 98 134 147 171 205 211 182 165 140 138 131 130 144 144 131 139 146 133 124 99 51 64 79 67 78 78 85 102
166 158 159 129 137 119 139 155 127 121 118 134 170 182 188 182 181 169 137 129 143 138 127 129 137 134 144 133 116 59 59 74 74 71 80 81 72 109
151 158 115 127 122 123 113 97 89 92 109 100 152 174 170 170 158 136 126 148 137 138 146 152 143 144 157 116 78 30 59 77 83 93 84 99 95 163
153 145 129 139 131 126 114 110 110 130 152 183 177 191 173 167 167 158 150 156 156 135 134 161 163 159 133 111 52 47 78 85 88 88 84 97 133 228
150 115 139 137 140 130 136 132 150 165 186 196 202 183 173 171 170 145 141 149 149 165 170 159 137 132 109 89 43 54 80 78 78 80 62 86 119 185
142 137 151 137 124 133 154 145 157 180 197 207 193 198 194 182 161 158 149 150 134 158 159 148 136 121 105 68 40 69 66 67 68 64 61 60 85 97
147 111 150 154 175 154 150 127 157 188 198 218 207 190 173 166 191 188 195 168 130 146 177 141 131 108 83 62 48 40 41 36 33 42 65 56 70 51
160 143 169 159 167 194 191 175 164 160 196 213 192 161 139 136 181 171 160 155 144 137 147 134 122 92 50 50 25 12 13 17 22 25 44 42 62 52
149 145 154 154 171 200 206 223 206 217 210 189 159 132 120 125 146 148 173 175 173 146 132 119 92 61 51 25 8 6 9 11 19 40 48 63 64 79
150 163 171 172 122 127 194 206 216 211 199 175 157 123 100 99 141 214 196 211 168 132 114 99 73 71 37 26 26 23 22 31 28 40 63 73 70 98
143 155 128 162 122 126 182 186 195 180 210 212 187 143 127 118 103 141 188 173 178 131 84 107 95 71 36 39 54 66 35 30 25 38 48 68 75 96
155 161 180 126 100 99 132 177 155 154 140 179 171 169 166 160 174 149 139 155 151 114 54 108 68 86 45 45 57 29 26 40 51 51 67 86 104 90
140 164 164 114 103 99 117 117 92 116 190 199 197 189 182 161 167 160 150 120 89 76 73 95 55 83 82 59 50 36 20 44 74 68 70 73 81 92
143 131 104 81 71 101 92 89 80 175 192 214 192 175 167 168 197 200 192 168 152 125 118 91 78 69 73 65 61 47 81 46 69 82 85 89 92 83
113 116 128 79 63 107 115 115 192 209 206 188 181 171 211 218 192 180 167 159 151 135 140 117 74 85 92 76 72 75 81 74 79 69 80 79 66 54
125 96 135 195 133 161 139 154 224 242 220 206 196 203 202 197 181 185 185 178 137 132 120 128 119 96 87 89 95 88 94 94 80 100 90 76 67 57
99 102 90 138 160 159 162 166 199 204 236 228 214 215 214 203 194 186 201 167 157 133 141 151 153 152 131 88 66 94 109 109 126 119 110 86 79 58
79 72 73 122 160 179 181 196 207 211 256 232 207 215 217 212 176 198 172 176 164 155 160 179 181 162 153 117 104 64 108 127 142 114 95 96 79 90
43 68 62 114 141 174 213 206 230 256 258 214 189 207 211 223 205 184 182 174 157 151 162 188 173 151 149 115 93 87 81 116 112 97 90 99 98 89
29 51 59 88 126 162 181 193 215 238 217 210 216 201 187 205 188 188 181 146 140 159 139 120 122 140 194 140 131 89 89 41 76 91 80 94 93 97
34 41 52 78 140 156 172 188 195 196 212 214 224 219 191 220 196 193 181 186 143 132 135 182 194 215 171 130 95 102 89 82 47 62 70 94 110 112
50 34 58 64 86 118 161 165 170 181 200 217 226 227 209 206 187 180 190 183 186 179 196 226 215 197 148 121 89 90 91 97 113 119 90 44 52 55

GFSNE_con_3kmhel_090.txt.gz
Helicity
80 98 108 123 123 127 148 227 232 128 123 204 106 175 200 203 179 166 143 115 122 155 171 159 148 119 105 106 111 103 93 72 57 39 37 46 48 74
105 103 118 147 122 116 130 130 81 121 111 170 169 174 200 210 194 188 153 128 124 129 129 135 126 125 130 124 114 107 90 76 25 32 51 50 49 68
133 135 138 167 170 141 178 173 140 180 201 204 198 175 179 188 206 201 188 170 152 114 113 120 128 123 129 136 134 115 88 46 0 41 58 44 60 79
115 146 121 161 148 182 154 138 152 160 193 227 199 189 172 177 192 187 170 160 134 110 121 119 129 135 139 143 153 134 97 48 30 64 66 66 97 97
126 138 139 147 162 180 182 175 153 153 148 161 174 188 201 206 196 166 146 131 126 127 132 121 144 149 151 147 136 114 82 37 62 72 73 82 110 125
123 144 133 157 156 171 163 168 161 161 166 183 187 196 198 194 194 161 130 127 129 143 142 169 164 166 157 135 116 95 48 23 65 73 75 99 116 147
118 122 126 121 128 159 164 194 194 187 218 215 222 213 209 212 185 146 150 145 132 143 154 159 174 164 135 106 91 66 33 58 66 73 89 99 95 111
122 153 159 127 153 141 149 168 182 212 188 223 235 202 203 200 199 170 186 175 137 139 156 136 150 127 116 108 63 42 45 59 60 68 87 77 51 81
131 126 148 149 148 160 139 106 133 148 187 247 210 212 197 189 213 204 187 182 152 143 158 126 142 111 111 85 40 36 37 41 50 43 61 67 45 43
135 135 142 156 155 176 186 187 216 193 177 180 194 191 169 191 196 180 170 198 207 167 159 128 123 104 89 53 30 27 32 29 40 40 51 75 67 67
127 136 139 155 153 130 190 195 190 198 216 197 167 150 153 145 210 271 240 225 191 150 150 139 113 98 60 43 28 31 39 32 44 50 64 74 67 76
111 124 110 126 126 128 189 193 195 189 214 257 254 213 181 154 135 181 231 220 231 188 145 169 142 87 71 46 43 63 66 44 40 60 66 66 73 85
118 128 146 99 94 103 135 202 179 184 165 204 211 228 220 183 178 161 166 197 214 181 118 206 138 108 91 81 64 56 54 53 69 66 58 53 62 72
102 114 129 107 109 113 126 135 114 148 212 232 227 209 195 178 162 156 146 158 164 131 100 150 101 104 109 84 66 73 49 47 65 40 48 70 88 101
141 128 113 117 98 119 129 119 112 213 224 240 221 199 175 165 203 203 202 202 195 182 138 111 114 91 81 49 72 88 86 43 48 68 85 94 97 111
155 144 160 118 110 125 132 131 191 234 212 198 203 201 220 228 219 215 194 193 203 182 178 121 104 112 94 74 86 100 95 74 73 77 93 102 101 100
150 123 150 120 137 143 193 168 213 207 195 190 210 239 235 222 217 210 202 194 173 167 156 161 142 108 91 102 103 95 107 104 82 114 120 94 76 74
82 96 108 120 101 72 103 180 184 131 187 236 214 233 233 226 219 244 233 185 154 150 172 151 178 201 172 95 70 117 131 113 104 110 129 123 95 80
50 57 69 74 94 86 91 135 167 174 220 240 233 222 234 217 200 240 234 213 137 132 146 162 171 197 193 126 146 73 138 126 154 153 145 148 116 94
44 43 42 46 65 100 137 126 177 200 216 223 235 221 235 212 248 222 224 243 144 129 126 155 150 167 173 153 158 149 98 155 154 141 139 138 101 88
53 45 51 44 35 64 136 159 150 202 212 225 229 241 239 236 234 212 232 211 126 150 97 101 98 137 194 200 189 180 156 92 121 142 127 120 92 88
64 45 38 45 44 52 96 165 185 167 187 222 222 247 259 263 246 204 207 220 157 138 91 123 175 184 202 178 166 181 177 154 104 99 79 82 71 64
68 49 33 51 46 53 76 133 172 147 163 171 190 213 225 224 225 194 192 215 202 173 149 181 188 180 179 174 174 165 158 153 143 119 101 57 61 74

GFSNE_con_3kmhel_096.txt.gz
Helicity
129 87 59 113 145 103 166 206 172 188 136 250 310 344 345 382 430 428 304 222 168 118 128 152 172 160 143 142 129 120 116 98 76 71 62 55 49 32
69 -44 -17 78 97 176 172 176 242 182 194 195 180 203 233 299 318 291 222 168 106 133 128 126 132 151 136 126 120 117 111 98 85 96 76 55 31 3
94 110 106 85 75 114 136 151 147 170 165 200 207 160 157 199 253 261 223 180 155 116 123 117 120 119 110 109 128 136 140 115 118 104 76 49 30 16
65 64 75 66 55 76 105 113 146 171 236 276 245 219 188 227 241 236 218 216 179 139 135 138 128 105 83 97 128 143 156 134 128 113 78 47 24 30
104 109 102 103 96 113 110 127 148 195 185 286 330 299 221 290 283 279 241 198 193 159 145 131 110 98 99 121 132 132 136 140 126 106 83 62 34 33
122 115 100 106 121 116 133 127 185 206 232 307 354 405 422 327 314 252 261 186 185 167 145 134 109 106 117 122 115 128 137 131 115 89 72 48 43 39
155 126 121 131 132 106 118 141 143 177 206 314 359 297 275 283 216 220 196 198 147 149 154 155 152 163 134 129 130 108 108 96 92 86 58 43 61 52
93 130 152 155 142 140 124 113 140 162 213 308 367 351 362 361 262 223 241 247 181 142 162 160 172 164 159 156 116 110 99 96 86 70 50 65 74 64
160 125 111 117 147 130 166 136 125 98 145 255 272 303 311 322 320 273 304 317 196 128 157 136 155 138 143 142 108 100 94 90 74 52 66 77 84 84
91 120 145 143 139 142 138 148 168 137 117 162 199 222 200 288 198 219 268 262 207 162 167 134 137 124 137 138 108 104 96 77 64 56 63 79 104 121
66 34 54 85 125 175 134 124 136 142 154 163 155 207 221 254 320 392 307 314 224 188 150 165 139 157 150 138 133 104 85 81 55 55 83 80 110 116
90 116 136 83 89 149 134 130 136 128 132 162 196 168 159 151 115 206 274 248 279 206 159 213 192 149 156 163 166 145 116 53 53 51 57 53 87 91
59 71 95 164 175 145 147 114 116 132 112 146 169 210 204 214 197 207 191 256 280 210 132 242 213 204 206 148 130 153 142 114 77 64 42 55 76 77
56 44 27 83 139 182 155 112 114 93 162 180 168 210 249 228 230 215 232 271 235 194 158 229 178 205 209 175 140 130 141 110 101 95 75 86 75 73
95 59 42 41 72 88 131 201 142 104 185 190 190 198 195 231 253 305 313 321 296 249 202 199 184 191 176 140 139 147 165 102 103 118 74 72 83 87
88 93 50 41 57 64 71 88 119 126 145 170 169 178 214 228 236 299 321 297 288 270 278 218 193 193 177 155 151 150 129 113 121 107 88 67 64 51
67 87 69 40 31 61 65 68 112 133 148 167 189 202 183 204 230 283 310 298 270 258 248 241 233 213 171 154 169 127 136 133 103 142 110 75 49 46
77 89 73 56 35 39 60 86 96 128 145 163 180 176 161 193 210 236 305 273 252 230 247 256 250 253 205 155 131 151 131 144 137 123 119 97 73 53
82 81 85 62 47 33 39 39 53 116 123 156 188 210 172 144 147 188 209 220 243 215 212 259 234 241 215 155 163 94 146 139 171 142 143 129 90 66
80 84 75 56 38 38 35 22 44 54 88 96 177 221 195 179 177 187 217 216 216 214 218 241 206 195 171 175 153 145 96 192 167 163 161 157 101 100
72 86 93 73 34 20 26 26 24 47 57 73 110 149 191 184 175 164 199 152 174 212 183 206 165 155 243 235 204 197 206 175 150 205 182 181 141 110
74 83 85 90 47 20 13 19 31 41 41 36 101 114 142 205 168 176 181 196 201 210 189 227 230 264 262 234 215 189 219 235 174 139 144 152 108 84
69 73 88 79 71 42 29 25 18 24 50 54 32 114 101 144 178 189 167 170 204 212 220 259 291 270 229 254 250 236 192 202 244 232 214 157 143 133

GFSNE_con_3kmhel_099.txt.gz
Helicity
103 92 89 94 117 118 141 140 99 107 105 198 178 148 237 260 301 358 460 467 572 388 331 252 225 230 172 172 136 119 103 102 86 84 74 67 56 46
124 106 125 151 152 147 144 142 151 109 91 146 254 234 205 189 243 288 384 534 402 269 239 184 171 156 145 144 137 124 114 109 98 92 84 78 64 51
94 77 115 119 203 157 133 95 39 196 177 158 137 145 167 199 216 227 291 376 286 213 191 165 137 110 95 119 113 96 114 117 113 90 86 85 72 47
65 70 77 70 73 79 73 88 110 97 117 126 171 191 185 163 169 178 232 266 243 185 157 93 85 102 100 95 95 93 119 112 108 90 95 91 72 45
129 129 122 112 98 87 75 77 92 116 126 198 239 232 258 223 258 294 328 311 292 205 129 92 105 111 98 88 75 103 111 109 91 92 89 82 66 48
137 147 143 133 142 153 153 148 134 131 156 226 268 295 284 283 311 339 258 302 271 298 215 150 116 101 84 70 72 102 107 96 86 92 79 63 50 42
129 141 149 170 168 142 129 150 166 167 172 186 256 325 327 359 353 448 426 344 276 239 236 183 149 143 117 78 118 110 98 91 89 80 59 50 52 55
80 122 155 156 150 189 208 168 136 155 165 248 206 193 234 272 341 331 341 338 323 214 219 166 148 181 168 149 114 98 95 81 68 66 71 55 53 79
107 108 92 67 118 136 146 168 190 169 144 170 228 255 236 353 396 396 415 480 433 221 216 195 173 166 160 158 111 95 92 79 68 68 58 60 82 88
127 135 140 144 134 139 112 98 120 148 137 150 139 162 239 358 430 403 320 359 383 267 277 193 180 152 162 158 103 87 78 80 82 69 50 64 100 110
51 108 110 148 199 206 225 182 84 81 97 104 97 163 107 219 289 431 406 396 413 307 271 257 220 165 149 148 137 82 86 91 84 69 68 91 102 109
122 119 119 150 172 198 213 215 227 138 69 90 14 82 91 138 205 273 391 377 472 397 280 295 210 185 187 145 157 175 137 88 78 57 83 88 86 80
87 92 94 99 104 135 140 148 162 162 207 81 84 94 113 162 181 293 328 404 470 358 231 386 258 192 127 55 172 171 156 138 96 73 75 78 75 77
87 84 79 72 83 85 97 94 136 173 109 159 116 96 112 133 181 211 247 292 276 193 119 233 235 227 246 184 164 152 133 134 123 117 118 94 72 78
89 73 59 73 70 66 42 66 108 85 107 105 149 113 97 117 201 235 320 275 324 266 173 204 185 206 238 220 190 175 179 116 113 117 114 90 91 93
93 101 76 48 62 63 45 36 79 86 86 87 119 133 135 163 195 252 259 222 340 332 332 274 213 206 235 198 182 162 138 145 115 117 102 112 108 104
86 94 77 78 81 67 41 44 77 90 95 90 90 158 172 155 163 217 245 265 299 325 295 317 321 272 232 171 207 144 132 157 107 133 128 110 95 93
94 93 82 78 74 59 43 45 53 83 49 97 114 124 168 149 186 188 231 224 252 277 306 290 306 306 255 200 169 151 136 143 139 113 127 116 111 78
93 86 77 68 59 42 45 47 50 49 27 38 139 101 178 134 161 184 190 219 251 258 247 273 220 234 218 190 161 115 158 142 142 121 109 115 129 74
75 73 61 56 56 43 38 41 44 39 24 39 69 114 221 206 186 174 165 195 229 261 233 229 200 189 172 182 171 136 107 150 137 126 134 137 144 130
54 63 61 58 55 48 40 29 28 43 44 42 28 81 96 181 201 197 180 141 189 221 207 184 157 148 224 235 198 175 155 143 151 174 153 147 150 129
51 46 51 60 56 46 43 36 24 31 40 20 32 60 80 78 128 177 153 145 164 191 188 202 229 210 222 193 189 192 178 176 160 131 170 162 132 115
32 52 61 57 54 50 46 36 36 12 33 25 32 33 33 93 85 121 137 154 169 176 209 217 224 201 162 192 232 229 184 199 213 232 243 194 151 128

GFSNE_con_3kmhel_102.txt.gz
Helicity
129 107 135 124 114 139 130 60 76 86 64 86 133 152 140 143 125 152 137 193 236 254 293 364 398 376 286 233 233 153 110 98 91 86 76 60 52 57
183 102 104 102 109 103 90 134 149 150 112 119 99 140 174 189 143 151 190 200 237 317 530 579 464 413 243 253 203 137 97 90 81 74 73 68 64 74
83 27 124 179 72 45 111 162 208 234 189 167 196 144 153 145 135 129 198 193 236 359 579 535 425 287 250 207 178 101 93 81 65 67 68 65 74 73
83 51 44 11 53 120 18 47 97 72 124 145 192 175 152 142 136 163 189 215 266 306 365 404 250 233 207 192 141 89 85 74 67 85 88 84 75 62
94 92 89 85 73 48 70 112 147 112 91 85 110 145 143 170 191 222 198 209 225 194 207 257 213 191 195 112 87 88 75 59 87 87 100 84 68 61
95 105 107 106 112 101 97 111 117 130 141 143 160 174 189 194 199 177 200 242 264 304 241 250 207 166 86 87 98 88 89 57 83 97 88 78 60 54
91 96 101 115 119 108 106 113 129 129 151 140 166 216 197 197 222 267 220 288 320 425 382 345 307 239 173 116 121 117 76 62 76 75 74 76 61 49
74 67 86 104 120 150 157 156 128 133 154 178 174 162 162 185 183 279 329 415 407 342 465 503 323 283 206 164 128 109 66 64 85 77 75 70 66 63
82 109 129 122 117 138 171 177 204 181 117 130 159 163 154 123 186 229 273 314 371 453 497 398 382 332 224 181 124 105 73 71 80 76 71 73 74 75
12 14 0 52 119 157 174 180 189 193 225 210 167 146 128 83 110 164 206 259 372 409 459 482 500 502 327 221 92 90 76 75 76 70 61 66 70 80
47 51 53 52 78 126 123 120 153 181 167 217 254 215 171 71 79 118 248 315 400 540 461 541 586 480 222 230 205 104 84 70 73 66 64 70 80 111
88 87 84 102 132 146 137 134 112 140 179 184 165 202 246 184 60 118 172 256 369 424 583 576 516 394 346 255 232 212 148 81 78 66 64 79 90 104
115 111 104 108 108 106 106 114 116 138 129 114 92 100 156 225 186 68 130 260 303 468 415 556 545 505 365 231 274 225 186 159 137 100 64 69 84 102
94 90 86 83 86 98 112 107 114 107 93 96 91 80 89 152 178 152 89 147 180 116 316 548 482 555 580 419 339 283 191 188 167 145 123 91 77 101
104 99 80 61 60 76 72 114 98 88 101 96 93 94 75 53 123 216 181 166 158 192 129 478 437 455 426 363 343 246 206 175 170 161 195 109 118 122
93 104 94 89 69 77 83 85 78 79 86 91 79 62 66 78 54 172 175 178 168 235 304 232 300 279 365 256 248 170 213 194 171 149 172 118 116 97
75 97 108 113 117 112 104 89 70 63 71 81 65 63 72 85 79 116 204 130 199 218 280 306 370 329 272 227 232 206 212 218 116 174 163 128 102 67
92 98 104 105 101 100 97 83 71 63 58 74 73 88 95 108 99 59 164 157 184 235 279 337 348 352 332 252 249 206 214 213 155 177 148 160 114 70
75 77 78 80 77 76 76 67 59 56 62 63 55 69 94 81 105 103 134 163 165 201 251 316 282 238 247 235 230 206 217 175 179 136 135 123 103 95
65 63 61 55 57 64 60 53 49 48 56 63 53 57 68 81 35 47 149 143 155 197 221 256 221 210 190 191 208 176 146 170 181 170 167 158 156 156
57 50 48 47 45 43 46 39 38 43 55 63 58 52 64 55 76 8 137 154 132 191 178 182 192 175 234 224 209 204 196 193 174 176 156 147 141 137
56 49 44 44 38 39 43 36 35 36 50 56 53 56 59 54 53 61 86 147 166 186 177 182 208 235 238 194 153 177 183 193 185 123 151 178 162 98
48 44 34 32 25 32 46 40 33 32 41 67 42 68 60 24 39 6 27 82 108 140 139 199 217 218 185 191 170 178 191 199 201 179 185 177 165 120

GFSNE_con_3kmhel_105.txt.gz
Helicity
156 102 80 146 153 139 143 151 230 246 267 246 232 111 157 157 135 131 135 72 66 49 32 45 87 189 293 268 212 230 322 227 189 102 76 68 64 63
116 89 125 160 77 139 157 146 154 133 132 151 96 136 153 188 131 160 108 147 136 114 85 107 94 207 312 379 452 390 312 232 169 101 63 67 65 65
60 64 71 51 70 249 269 117 152 148 107 73 157 190 201 220 191 185 203 144 132 90 93 87 138 250 411 428 494 354 261 218 128 102 74 59 62 73
56 41 -42 -65 -14 -2 17 83 150 138 95 158 15 335 179 183 151 117 50 99 108 88 65 77 159 317 468 543 441 312 263 191 152 92 83 72 73 77
66 71 72 91 79 72 23 -23 11 35 61 99 109 77 85 86 122 129 108 100 147 116 101 207 342 446 625 504 291 289 233 198 146 95 74 76 84 77
73 79 81 81 77 80 93 104 66 63 72 56 77 125 118 109 124 124 103 123 120 135 135 197 233 269 234 173 271 252 245 201 115 74 67 83 104 76
83 98 100 105 86 65 72 85 94 83 76 74 88 74 64 108 127 98 93 147 132 169 202 206 243 227 209 235 245 240 207 143 95 55 66 101 97 72
90 80 76 78 116 149 139 123 98 93 111 111 114 114 117 101 107 122 149 141 156 143 251 248 299 349 368 331 262 237 149 105 61 71 67 83 74 72
55 71 88 102 87 89 128 156 154 131 122 148 150 157 158 140 134 108 140 171 119 177 196 258 371 349 368 320 297 241 195 144 63 61 90 104 78 65
14 4 -1 31 82 116 114 115 120 122 121 118 140 149 172 191 194 205 121 129 183 193 93 237 328 345 435 394 334 260 206 169 107 90 97 111 88 70
46 50 54 50 27 55 38 47 90 113 110 127 76 93 122 139 124 152 173 158 188 217 205 186 317 360 397 454 381 280 220 192 110 83 69 95 122 87
75 74 64 53 63 79 63 46 38 33 85 117 106 73 73 81 105 126 152 195 194 219 182 288 276 372 396 407 505 361 389 269 109 64 107 101 92 140
115 109 108 111 112 96 97 90 77 76 78 73 71 93 91 86 94 115 135 154 216 202 109 168 269 381 424 343 599 499 522 316 214 149 102 107 99 97
126 114 110 119 129 108 97 95 95 86 75 66 48 37 55 76 84 112 157 156 138 183 144 109 203 272 412 432 470 574 570 340 279 264 218 143 90 92
119 112 101 93 90 85 72 90 103 85 65 72 77 66 51 53 64 61 131 145 123 135 175 163 203 272 234 405 588 587 683 552 357 306 295 213 195 168
79 86 92 95 90 84 83 84 101 108 85 81 74 68 52 43 48 71 90 131 166 114 174 209 193 215 261 309 537 508 559 589 422 357 358 229 201 164
72 80 74 74 79 92 99 95 106 108 99 89 83 68 48 43 51 81 75 112 152 147 134 245 253 264 361 317 387 389 395 431 325 389 354 254 208 168
78 78 73 71 71 70 77 80 81 85 79 77 76 60 57 59 76 70 66 100 107 112 162 239 275 309 387 315 350 330 352 303 281 306 275 244 189 168
76 70 66 63 62 61 64 71 72 69 60 62 63 58 53 61 68 54 53 76 100 83 81 260 221 238 305 305 266 317 334 321 272 262 264 223 189 189
101 86 73 64 63 64 60 59 72 63 54 53 56 50 40 41 42 48 45 58 69 84 118 117 195 187 183 284 305 284 206 260 195 207 227 251 226 157
90 90 87 75 61 62 52 50 55 44 43 48 52 39 37 45 42 48 59 57 38 49 26 109 139 166 261 312 300 264 245 127 151 171 191 203 245 259
65 63 58 58 49 51 66 51 42 34 29 35 41 45 43 53 44 29 56 62 42 3 38 104 158 170 185 171 208 225 280 220 121 101 165 177 203 208
61 39 11 -6 4 32 47 17 21 27 26 33 46 49 49 42 42 38 68 42 56 -22 27 71 145 179 160 146 165 194 200 187 188 193 205 201 170 181

GFSNE_con_3kmhel_108.txt.gz
Helicity
193 294 242 192 218 114 106 86 141 143 154 205 292 347 329 368 242 251 315 105 117 118 118 110 116 94 70 58 43 99 197 382 285 341 205 152 120 92
41 116 115 83 127 124 144 159 90 107 134 144 165 160 241 247 146 205 113 116 95 79 122 112 80 8 48 36 62 138 253 306 367 385 218 113 119 91
-65 -47 25 26 93 55 63 84 169 255 156 115 140 159 173 157 169 142 156 125 99 57 63 60 40 48 34 47 86 176 256 471 402 378 260 137 138 96
66 65 62 41 30 -8 -34 -7 11 -62 116 110 47 103 213 212 181 201 133 132 136 134 98 108 62 65 72 68 108 222 427 593 423 334 178 176 127 92
60 65 57 61 56 49 44 67 34 9 28 62 73 19 59 118 117 113 94 80 79 77 65 43 54 47 19 58 189 366 498 545 267 281 240 175 130 93
83 81 80 68 68 82 89 102 93 79 81 66 19 8 13 40 39 68 62 53 64 60 39 43 22 5 -47 34 218 472 447 382 232 227 248 200 147 95
47 53 63 83 104 97 86 90 95 98 100 89 93 80 77 67 29 14 29 47 60 48 46 64 132 138 134 259 444 353 245 205 174 215 199 171 127 67
53 51 48 47 54 94 113 132 126 103 108 106 95 96 100 103 109 118 98 82 47 28 52 74 121 175 177 205 200 192 242 228 271 260 215 138 85 91
65 69 76 67 82 70 80 111 123 143 135 100 101 105 118 135 121 128 145 131 115 85 55 94 136 173 211 213 200 233 259 264 256 241 159 101 96 91
32 35 46 65 80 96 78 71 83 94 100 111 136 122 88 87 81 92 116 128 100 117 110 114 117 149 203 219 166 232 322 298 255 219 162 122 108 95
66 74 70 62 46 41 75 89 116 123 113 119 144 151 144 126 116 118 140 138 137 91 96 179 155 156 169 195 223 188 201 266 284 285 185 135 122 100
49 62 79 100 127 138 92 55 58 71 116 130 93 84 99 88 84 90 104 137 148 143 104 160 200 214 174 162 195 231 270 218 221 264 206 162 133 174
49 57 62 85 104 120 120 88 70 63 67 67 76 84 114 121 114 104 115 142 147 162 143 124 148 278 308 165 102 174 276 305 309 289 178 151 162 197
73 62 56 60 83 94 98 78 73 64 68 71 47 29 53 81 86 106 115 119 112 114 119 173 137 185 276 283 239 201 272 320 407 391 366 254 201 177
69 45 39 43 56 77 81 85 106 87 80 87 50 34 45 48 41 57 84 92 109 106 113 131 180 172 176 220 245 218 275 342 397 467 440 338 347 315
58 68 35 27 33 43 69 77 90 96 88 74 49 37 53 54 38 10 39 93 108 107 119 137 148 166 172 188 204 239 258 297 396 428 442 421 399 288
59 83 83 78 70 66 69 64 69 71 74 65 50 41 57 52 44 40 62 82 84 96 108 140 172 138 163 180 200 208 238 322 295 475 559 437 378 376
89 96 85 81 74 55 36 30 37 43 50 48 40 31 56 67 64 79 87 110 105 90 100 117 176 192 195 181 174 169 244 289 358 433 549 452 407 341
95 88 97 89 79 76 67 54 40 53 56 60 54 47 50 53 62 60 69 97 99 75 92 113 131 153 165 118 145 220 212 321 436 423 449 463 442 379
97 95 90 94 93 79 67 58 46 46 48 41 60 52 35 40 46 54 59 76 75 71 64 93 125 119 86 112 148 197 200 356 409 416 444 499 401 238
101 96 83 73 65 59 49 51 61 58 30 27 38 37 28 23 30 41 57 51 60 38 53 76 104 105 161 161 255 245 268 219 349 392 400 420 378 348
106 104 99 85 68 38 11 9 52 55 17 16 24 21 10 6 20 23 33 15 27 22 42 49 78 92 136 103 219 253 267 286 305 248 279 346 340 325
127 132 139 127 110 76 28 -50 -47 -48 -33 -6 19 5 2 3 4 -8 -14 15 62 20 43 57 52 71 28 83 210 255 235 240 259 291 293 145 187 133

GFSNE_con_3kmhel_111.txt.gz
Helicity
23 53 136 84 96 259 250 289 213 94 181 121 191 175 284 256 328 368 353 303 267 258 233 239 178 200 133 96 87 50 63 83 104 187 251 274 181 138
-13 -10 -20 -44 -0 93 345 155 129 223 211 159 97 96 128 148 178 197 270 306 248 191 166 161 170 123 137 118 111 84 97 82 119 66 324 345 182 193
39 38 52 38 -9 -22 -39 -11 44 43 148 136 192 205 120 116 152 158 147 178 197 154 131 105 76 84 91 96 89 87 69 68 117 152 395 287 196 191
72 61 60 35 31 51 48 54 32 26 35 114 110 150 132 198 141 141 150 173 157 157 112 96 85 89 93 103 106 102 64 72 114 170 336 379 272 199
78 75 67 50 50 56 36 39 37 51 16 11 13 -40 23 34 106 129 135 143 97 122 136 104 114 93 77 82 88 55 61 73 151 270 355 473 378 274
72 82 77 60 55 62 45 67 53 45 48 59 48 77 66 43 44 29 82 80 57 149 128 75 92 76 72 72 61 57 53 64 151 315 492 555 374 202
75 69 66 78 91 83 66 55 57 67 73 69 62 69 82 113 126 77 34 43 -19 -6 49 31 48 51 47 70 54 13 -11 96 225 406 605 423 176 182
69 88 93 81 79 105 82 91 85 83 85 73 85 94 107 93 104 117 98 31 1 19 -15 17 33 82 89 69 59 41 108 278 485 577 251 175 169 187
66 67 77 84 107 90 62 58 68 116 130 107 91 93 100 100 80 92 99 96 94 127 81 36 81 124 131 127 112 114 176 317 204 192 222 218 197 164
43 46 47 52 73 119 85 65 47 45 65 112 110 77 74 91 88 86 112 121 110 95 72 68 50 106 142 156 145 105 131 205 206 252 232 215 194 165
37 49 49 55 75 111 106 63 54 67 72 88 101 115 120 136 127 87 104 106 105 123 132 126 92 97 141 174 204 170 137 138 191 225 220 213 186 152
28 9 6 41 72 96 98 83 51 39 63 86 103 93 61 76 132 100 99 123 127 96 101 128 143 125 104 92 178 222 184 160 177 183 191 209 196 219
64 61 69 51 51 60 59 62 54 52 50 61 78 84 74 60 82 103 103 103 126 139 117 111 139 166 164 162 153 228 219 219 204 219 188 194 189 214
86 88 73 28 48 48 60 65 69 71 67 51 61 63 50 44 70 107 103 91 87 84 84 102 89 133 150 165 178 163 230 260 278 265 245 210 161 140
125 90 61 53 39 54 44 41 79 67 63 58 55 63 72 50 53 85 90 76 75 78 88 89 97 88 102 127 164 183 176 229 258 301 295 283 302 286
94 117 74 51 47 56 75 82 83 78 71 73 79 76 48 42 37 50 67 74 82 98 86 99 98 99 95 106 129 164 199 185 208 248 324 313 330 327
88 108 97 94 93 102 99 98 95 84 73 72 66 87 76 32 42 55 64 78 84 104 119 112 117 116 113 95 121 146 211 252 200 232 296 332 351 338
123 126 118 108 98 92 85 85 96 80 83 75 66 64 56 44 49 66 69 75 75 87 113 118 120 126 104 84 83 123 169 205 273 220 249 290 333 349
135 128 126 113 97 93 107 105 83 89 88 68 60 55 55 46 41 53 73 83 84 102 110 112 100 130 126 122 92 93 154 175 206 241 255 271 278 347
122 123 123 115 100 93 89 82 63 56 79 86 53 52 43 49 41 52 54 63 92 124 108 82 83 93 115 92 94 102 81 140 181 187 243 323 284 205
119 123 124 123 120 109 103 80 55 31 52 77 47 31 30 39 28 25 20 59 66 29 49 72 88 68 99 114 108 64 131 136 160 210 259 282 353 397
121 127 128 134 145 149 141 112 61 26 8 44 36 24 15 25 15 13 16 4 31 28 33 40 62 78 67 80 75 99 130 199 210 186 207 334 354 354
127 133 135 140 151 170 154 143 106 56 -0 -27 -39 -12 4 1 8 17 18 16 6 5 36 56 52 72 57 67 66 144 152 206 281 331 318 276 312 170